Theta_e
332 341 346 348 347 346 346 346 345 345 345 345 344 344 345 347 347 347 347 346 346 347 347 346 345 344 345 346 345 345 345 345 346 344 345 344 344 342 342 342 345 343 344
337 341 344 346 345 344 343 343 342 341 341 341 341 342 344 345 346 346 346 346 346 345 345 344 343 342 341 341 340 340 340 341 342 343 343 342 342 342 340 340 342 340 342
339 340 341 343 343 342 340 339 339 339 338 339 339 340 340 341 341 342 344 343 343 343 341 340 339 338 336 336 335 337 337 337 338 339 340 337 338 342 339 342 341 340 341
338 339 338 340 341 340 338 338 338 337 336 336 336 336 337 338 339 339 339 339 338 338 337 334 333 332 331 330 331 331 332 332 333 335 336 337 340 341 340 341 343 341 344
334 335 336 339 339 338 337 336 336 334 334 334 333 332 333 333 333 333 333 333 332 331 330 328 326 325 324 324 324 324 326 327 326 325 331 336 335 341 341 341 342 344 343
331 334 336 338 338 336 335 335 333 333 332 333 331 331 330 330 329 328 328 328 327 326 325 324 322 321 321 321 320 320 320 322 317 313 325 334 334 342 343 343 342 342 343
329 332 333 336 337 335 333 333 332 331 330 330 329 328 328 327 325 325 325 324 323 322 321 320 318 318 318 317 317 316 316 316 308 309 328 326 329 339 341 343 343 342 342
327 329 331 331 332 333 332 332 330 329 328 328 326 325 325 324 323 322 322 321 319 318 318 317 316 315 315 315 315 314 314 315 308 304 317 319 330 336 338 339 340 342 342
324 325 325 325 327 328 329 329 329 327 325 324 323 323 321 321 320 319 318 317 317 315 314 314 313 313 314 314 314 313 314 313 300 305 314 314 327 331 333 335 335 337 341
318 319 320 319 319 319 320 324 324 324 323 321 319 318 317 315 314 313 311 312 312 312 312 311 311 311 312 312 313 313 312 307 299 303 307 310 319 324 328 329 330 333 334
315 315 317 314 312 312 313 315 318 320 319 316 314 314 309 302 301 302 308 309 309 309 309 311 311 310 308 307 308 309 306 299 298 300 304 313 315 316 318 323 326 328 331
311 311 313 310 309 309 312 307 306 307 304 302 303 303 300 298 298 300 304 306 306 307 308 308 308 306 302 297 297 301 298 298 298 298 302 311 312 314 316 318 321 324 326
312 312 312 310 307 306 305 302 301 299 298 298 298 299 297 297 298 297 296 296 296 300 296 297 296 296 296 296 296 296 297 297 296 297 302 309 310 312 313 316 319 320 323
310 311 310 309 307 303 304 301 298 297 297 296 297 297 297 296 295 295 294 294 294 294 293 293 293 294 294 295 296 296 296 295 296 297 298 306 308 310 313 315 318 319 319
309 309 308 307 306 303 302 300 297 297 297 296 296 298 297 295 294 294 293 293 293 293 292 292 292 293 293 294 295 295 295 295 295 296 296 304 307 310 312 316 317 318 318
310 308 308 305 306 303 300 299 297 296 296 296 295 296 296 295 294 293 293 293 292 292 292 292 292 291 292 293 294 295 295 295 296 296 296 298 308 311 315 317 316 318 318
311 309 307 304 303 301 300 298 296 296 296 295 295 295 296 295 293 292 292 291 292 292 292 291 291 291 291 293 292 294 294 295 296 296 296 298 302 309 312 313 314 316 317
310 309 306 306 302 299 298 297 297 296 295 294 294 294 295 295 293 291 291 291 291 291 291 290 290 290 290 290 290 291 292 294 294 296 296 297 300 303 306 308 310 311 312
309 308 304 303 300 299 297 297 295 295 294 293 293 293 294 295 294 292 291 291 291 290 290 290 289 289 288 289 290 291 292 292 292 295 295 296 298 299 297 303 304 304 306
306 307 305 301 300 298 297 295 293 293 293 292 292 293 294 293 293 291 291 291 291 289 289 289 288 288 288 288 292 292 290 291 291 292 293 296 297 297 296 295 295 295 302
302 303 303 300 298 297 295 293 292 292 290 291 291 293 293 292 292 291 290 290 290 289 288 288 288 287 287 288 287 288 289 291 291 292 293 293 293 294 293 293 293 292 293
300 301 300 300 297 297 297 294 292 291 289 290 291 291 291 292 292 290 289 289 289 288 287 287 287 286 287 288 286 285 284 288 291 292 292 292 291 292 292 292 291 291 291
295 298 298 299 297 297 295 293 290 289 288 288 288 289 290 291 291 290 289 288 287 287 286 286 286 286 285 286 287 286 283 283 285 289 290 290 290 289 289 290 291 291 291
294 295 298 297 297 295 294 293 291 291 286 287 287 288 289 289 289 289 289 288 287 286 286 286 288 286 286 284 286 289 287 286 283 284 287 288 288 289 287 285 287 290 290
293 292 293 296 295 294 294 293 291 288 287 287 287 287 287 287 288 288 288 287 286 286 285 285 285 285 285 284 284 283 284 284 285 283 282 283 285 284 282 284 282 283 288
290 290 292 293 293 293 293 291 290 289 287 285 285 285 285 285 285 286 286 285 285 285 285 284 284 283 283 283 283 283 282 282 282 282 281 281 285 288 289 290 290 282 284
Wind_Speed
5 6 16 18 17 16 14 14 15 16 15 15 13 13 14 14 15 15 14 13 12 14 14 12 11 10 11 12 11 10 11 10 8 5 5 6 6 6 6 5 7 5 5
9 9 14 17 19 16 14 14 14 15 15 14 14 13 14 13 16 17 16 14 15 14 14 13 12 11 11 11 11 10 10 10 9 7 5 4 4 2 4 4 3 4 4
11 9 12 17 17 17 16 15 16 17 16 16 15 15 15 13 13 13 15 15 15 15 13 12 11 11 10 10 8 10 11 11 10 8 5 3 3 2 2 4 3 3 5
12 10 11 16 17 17 16 16 17 17 16 16 16 15 15 15 14 13 13 13 12 12 11 10 10 10 10 10 10 11 11 11 10 8 4 4 3 1 1 3 4 5 2
11 10 10 16 18 17 17 16 17 16 16 16 16 15 15 15 14 14 14 13 13 12 11 10 10 10 10 10 11 10 11 11 10 7 4 3 4 3 2 1 1 3 4
11 11 12 15 17 18 16 16 16 16 16 17 16 15 15 15 14 14 13 13 12 11 10 10 10 10 11 11 11 12 12 11 8 5 1 4 4 5 6 6 3 2 5
11 10 11 14 16 17 16 16 16 16 16 16 16 15 15 14 14 13 13 12 11 10 10 10 10 11 11 11 12 12 12 11 6 6 4 4 3 5 6 10 6 4 2
12 10 10 10 14 15 15 16 16 16 15 15 15 15 14 14 14 13 12 12 10 9 9 9 10 10 10 10 11 13 13 12 6 5 5 4 7 5 6 8 9 9 5
10 10 7 7 12 11 13 13 15 15 15 15 15 14 14 13 13 12 11 10 9 9 9 9 10 9 9 10 10 11 13 11 6 4 4 3 7 7 7 7 7 7 8
10 10 9 7 7 6 7 11 12 14 14 14 14 13 13 13 12 11 9 9 9 8 8 8 8 8 8 10 10 10 12 10 5 4 3 3 8 7 8 8 7 7 4
6 8 10 8 7 6 7 8 10 13 13 14 12 12 8 4 6 7 8 8 8 6 6 7 8 8 9 9 10 11 9 4 5 3 2 7 8 8 8 8 8 7 6
10 8 10 9 8 6 6 7 6 6 4 4 5 5 4 5 5 5 5 6 6 6 6 7 7 8 7 4 4 7 3 4 4 4 2 6 8 9 9 9 9 9 8
12 9 10 11 8 8 5 4 3 3 3 3 5 5 5 4 3 3 2 2 2 5 3 4 4 3 5 3 4 4 4 3 3 3 4 6 8 9 10 11 10 9 8
13 13 11 12 11 8 7 6 6 5 4 4 5 6 4 3 4 3 2 3 2 2 3 3 2 3 4 4 4 4 4 3 3 2 3 6 7 9 11 11 11 9 8
14 13 13 12 12 10 10 7 6 5 5 5 5 6 5 4 4 3 3 2 2 2 2 2 2 3 4 5 5 4 5 5 4 2 2 6 7 9 10 10 9 7 7
16 16 15 14 13 11 8 9 7 5 5 4 4 5 6 5 5 4 3 3 2 2 1 1 1 2 3 3 4 5 5 5 4 4 2 3 6 8 10 5 4 4 4
16 16 18 16 13 13 11 9 6 6 6 5 4 6 6 5 5 5 4 3 3 1 2 2 2 2 3 3 4 4 4 5 4 4 3 3 3 6 6 5 7 8 8
14 16 14 13 14 13 11 8 7 6 6 5 5 4 6 6 6 5 4 4 3 2 2 1 1 2 2 3 3 4 4 4 5 5 3 2 1 1 4 5 7 7 8
17 17 16 15 15 13 11 8 7 8 6 5 5 5 6 6 6 5 4 4 4 2 1 1 1 1 1 3 4 4 4 4 5 3 4 3 4 2 2 3 5 5 4
16 17 18 14 15 13 8 6 4 5 5 5 5 5 7 5 6 5 4 4 4 3 2 1 0 1 2 3 4 5 5 4 4 3 3 2 4 4 3 3 3 3 3
13 17 18 17 14 12 8 7 6 8 4 4 4 7 7 6 6 6 4 4 3 3 3 1 1 1 2 2 3 3 3 2 1 1 1 3 4 5 4 3 2 2 3
18 17 17 18 17 14 11 8 5 5 2 3 4 5 7 7 7 6 5 4 5 4 3 1 1 0 1 2 1 1 4 4 3 3 2 3 4 3 4 3 4 3 3
15 18 17 17 18 15 13 8 5 5 4 2 3 4 4 7 7 6 6 4 4 3 3 2 2 3 2 1 2 2 1 2 2 3 2 2 4 3 2 3 3 4 4
17 13 15 15 16 13 15 13 13 12 6 4 4 3 5 6 6 6 6 5 4 3 4 3 2 2 3 3 2 1 1 2 1 3 2 2 2 2 1 1 2 3 4
17 15 13 14 14 14 14 14 11 8 5 4 4 7 5 5 6 6 6 6 5 3 3 4 3 3 2 2 2 1 2 1 0 2 2 2 2 0 2 2 2 1 3
11 13 13 16 14 14 13 12 14 13 9 6 5 6 4 4 4 5 6 5 5 4 4 3 4 4 4 3 2 2 2 2 1 1 2 1 1 2 2 3 3 2 2
Wind_Direction
191 162 144 131 123 111 115 110 109 108 105 101 98 98 95 84 88 90 94 93 92 88 77 73 65 62 56 55 48 33 26 23 28 43 52 54 44 41 51 57 70 90 96
142 146 138 129 124 124 124 117 118 115 110 106 104 102 99 91 95 91 90 91 88 85 76 67 62 61 59 53 44 33 28 25 16 22 14 31 19 59 90 80 80 115 122
136 136 132 126 125 133 131 130 125 122 119 116 113 108 102 96 96 94 88 87 83 80 74 67 60 53 51 48 40 32 26 19 16 8 2 351 319 265 120 119 136 136 148
129 133 132 129 139 135 137 135 128 124 123 119 113 108 104 103 104 98 89 84 85 85 83 77 69 62 56 49 39 30 23 15 7 5 21 356 341 256 328 153 155 155 137
124 129 131 135 141 139 139 137 130 131 128 123 117 113 109 105 103 101 99 95 90 87 80 69 59 51 45 40 35 28 21 14 11 11 12 15 359 324 304 283 125 166 180
127 129 139 147 146 137 143 139 137 135 130 125 123 115 113 110 105 101 96 91 88 81 74 65 55 45 36 30 25 22 18 12 16 357 24 45 31 342 349 288 265 213 200
138 140 148 157 148 134 153 146 141 135 132 129 124 122 119 115 109 105 101 95 89 82 71 60 47 38 31 24 19 16 15 14 7 2 67 47 359 14 359 11 294 241 254
143 148 152 154 138 150 159 150 142 139 135 130 127 126 124 118 114 110 107 103 93 81 68 55 43 32 26 23 20 16 11 14 359 8 41 25 4 18 20 22 7 338 271
145 142 141 147 130 161 161 147 144 142 139 135 130 128 122 119 114 109 104 98 91 79 64 50 39 32 26 17 8 14 13 19 17 9 16 4 359 17 9 20 18 355 354
152 150 136 118 114 122 128 132 137 137 137 135 130 127 124 120 109 99 87 93 87 78 69 61 47 36 30 25 18 7 9 15 7 21 1 341 358 357 356 354 353 353 342
164 156 139 131 128 127 122 126 124 134 139 137 135 129 112 107 109 108 111 91 83 94 74 56 53 47 27 17 12 15 21 1 353 3 346 336 344 340 334 332 329 327 329
175 170 152 146 143 136 133 119 116 113 117 130 138 133 133 136 138 123 120 109 94 67 67 54 45 33 30 12 355 3 2 352 352 347 327 337 339 335 327 315 308 306 309
170 171 167 156 150 141 131 123 125 133 140 150 157 150 150 131 117 124 112 74 83 66 51 43 30 27 15 9 351 341 341 351 336 336 331 333 334 328 318 304 294 290 291
178 178 171 163 165 157 150 163 164 160 165 165 171 161 147 139 140 138 131 125 100 72 70 45 27 2 2 352 346 332 326 323 316 322 316 321 327 322 313 297 283 276 268
179 181 179 171 171 169 163 166 171 177 170 168 166 167 152 148 149 144 143 131 126 111 85 39 23 5 348 343 332 325 313 306 296 301 311 297 313 314 304 286 273 266 254
178 180 179 178 177 167 170 171 174 163 168 162 163 163 160 155 153 155 153 142 129 120 102 72 21 0 340 335 327 328 313 302 291 290 274 290 295 310 307 267 277 246 233
195 176 181 178 168 173 174 172 166 170 157 158 170 166 156 154 160 150 151 138 150 123 88 47 20 14 359 341 325 319 311 304 300 283 259 241 294 323 327 30 341 8 8
185 188 179 182 175 169 171 165 163 163 159 156 158 161 159 150 149 150 145 146 150 112 95 63 27 350 351 334 312 303 299 305 298 292 259 213 210 346 32 51 30 0 6
185 182 180 180 178 174 170 161 154 160 160 160 154 161 169 160 158 149 150 154 147 123 85 31 31 67 311 312 300 285 280 274 281 305 256 226 185 136 68 93 68 38 2
185 181 177 176 175 170 157 139 131 147 158 163 166 168 164 160 157 150 154 157 151 135 122 99 88 298 257 287 298 292 274 262 256 255 261 139 146 137 110 75 69 6 7
175 174 178 172 173 160 159 158 164 181 167 163 176 163 161 163 162 158 163 153 146 145 170 181 205 55 326 332 325 325 330 349 271 253 189 135 121 127 116 100 99 57 358
179 179 177 179 170 173 171 164 151 154 163 161 158 169 165 161 163 158 160 165 161 151 167 177 158 71 265 11 88 70 345 342 2 23 123 137 144 129 121 104 103 97 76
178 182 180 176 173 172 160 139 105 84 72 114 176 165 177 160 163 152 161 162 163 156 183 184 168 166 193 308 88 158 355 257 332 347 37 135 144 116 109 97 93 103 93
198 176 174 171 171 167 162 166 165 177 166 193 154 149 164 164 161 157 161 165 176 173 177 188 166 184 150 209 328 35 200 157 147 317 13 43 62 129 139 25 95 116 112
182 175 163 162 169 167 169 169 166 165 151 141 137 156 163 168 163 165 166 167 173 190 190 181 166 156 157 153 167 336 20 35 205 174 271 338 31 352 258 162 119 127 125
170 169 165 163 166 164 166 165 170 169 156 144 150 161 167 166 170 172 168 170 176 186 191 186 171 172 157 134 154 170 179 160 184 163 215 264 285 260 242 222 144 181 149